Weather History for Billings, MT

Change the Weather History Date:

Friday, October 25, 2013

  Actual Average Record
Temperature  
Mean Temperature 55 °F 45 °F  
Max Temperature 68 °F 56 °F 78 °F (1977)
Min Temperature 41 °F 34 °F 18 °F (1997)
Degree Days  
Heating Degree Days 10 20  
Month to date heating degree days 468 394  
Since 1 July heating degree days 582 623  
Cooling Degree Days 0 0  
Month to date cooling degree days 0 0  
Year to date cooling degree days 840 633  
Growing Degree Days 5 (Base 50)    
Moisture  
Dew Point 35 °F    
Average Humidity 55    
Maximum Humidity 82    
Minimum Humidity 27    
Precipitation  
Precipitation 0.00 in 0.03 in 0.38 in (1946)
Month to date precipitation 2.29 1.01  
Year to date precipitation 14.10 12.36  
Snow  
Snow 0.00 in 0.20 in 2.20 in (1954)
Month to date snowfall 0.3 3.2  
Since 1 July snowfall 0.3 4.3  
Since 1 September snowfall 0.3 4.3  
Snow Depth 0.00 in    
Sea Level Pressure  
Sea Level Pressure 30.16 in    
Wind  
Wind Speed 11 mph (SW)    
Max Wind Speed 24 mph    
Max Gust Speed 30 mph    
Visibility 10 miles    
Events      
T = Trace of Precipitation, MM = Missing Value Source: NWS Daily Summary

Daily Weather History Graph

Daily Weather History Graph

Search for Another Location

Airport:

Trip Planner

Search our weather history database for the weather conditions in past years. The results will help you decide how hot, cold, wet, or windy it might be!

Date:

Astronomy

Oct. 25, 2013 Rise Set
Actual Time 7:44 AM MDT 6:10 PM MDT
Civil Twilight 7:14 AM MDT 6:41 PM MDT
Nautical Twilight 6:39 AM MDT 7:16 PM MDT
Astronomical Twilight 6:04 AM MDT 7:50 PM MDT
Moon 11:29 PM MDT (10/25) 1:32 PM MDT (10/25)
Length of Visible Light 11h 27m
Length of Day
10h 25m
Waning Gibbous, 62% of the Moon is Illuminated
Oct 25
Waning Gibbous
Oct 26
Last Quarter
Nov 3
New
Nov 9
First Quarter
Nov 17
Full

Hourly Weather History & Observations

Time (MDT) Temp. Windchill Dew Point Humidity Pressure Visibility Wind Dir Wind Speed Gust Speed Precip Events Conditions
12:53 AM 42.1 °F 35.7 °F 37.9 °F 85% 30.12 in 10.0 mi SSW 11.5 mph - N/A   Clear
1:53 AM 46.9 °F - 37.0 °F 68% 30.09 in 10.0 mi WSW 16.1 mph - N/A   Clear
2:53 AM 46.0 °F 40.2 °F 36.0 °F 68% 30.09 in 10.0 mi SW 12.7 mph - N/A   Clear
3:53 AM 44.1 °F 35.9 °F 36.0 °F 73% 30.08 in 10.0 mi WSW 19.6 mph - N/A   Clear
4:53 AM 42.1 °F 34.5 °F 35.1 °F 76% 30.08 in 10.0 mi SW 15.0 mph - N/A   Clear
5:53 AM 45.0 °F 37.4 °F 36.0 °F 71% 30.07 in 10.0 mi SW 18.4 mph - N/A   Clear
6:53 AM 46.9 °F - 36.0 °F 66% 30.07 in 10.0 mi WSW 21.9 mph - N/A   Clear
7:53 AM 48.9 °F - 36.0 °F 61% 30.09 in 10.0 mi WSW 21.9 mph - N/A   Clear
8:53 AM 50.0 °F - 37.0 °F 61% 30.12 in 10.0 mi SW 16.1 mph - N/A   Clear
9:53 AM 51.1 °F - 37.9 °F 61% 30.14 in 10.0 mi SW 17.3 mph - N/A   Clear
10:53 AM 54.0 °F - 37.9 °F 55% 30.15 in 10.0 mi SW 16.1 mph - N/A   Clear
11:53 AM 57.9 °F - 39.0 °F 49% 30.16 in 10.0 mi SSW 12.7 mph - N/A   Clear
12:53 PM 62.1 °F - 39.9 °F 44% 30.15 in 10.0 mi SW 8.1 mph - N/A   Clear
1:53 PM 68.0 °F - 33.1 °F 27% 30.13 in 10.0 mi Variable 6.9 mph - N/A   Clear
2:53 PM 66.0 °F - 34.0 °F 30% 30.15 in 10.0 mi NE 12.7 mph - N/A   Clear
4:53 PM 63.0 °F - 36.0 °F 37% 30.18 in 10.0 mi ENE 12.7 mph - N/A   Clear
5:53 PM 60.1 °F - 34.0 °F 38% 30.19 in 10.0 mi ENE 6.9 mph - N/A   Clear
6:53 PM 59.0 °F - 32.0 °F 36% 30.21 in 10.0 mi East 5.8 mph - N/A   Clear
7:53 PM 53.1 °F - 33.1 °F 47% 30.23 in 10.0 mi North 9.2 mph - N/A   Clear
8:53 PM 54.0 °F - 32.0 °F 43% 30.24 in 10.0 mi North 4.6 mph - N/A   Clear
9:53 PM 51.1 °F - 32.0 °F 48% 30.27 in 10.0 mi NNE 5.8 mph - N/A   Clear
10:53 PM 48.9 °F - 32.0 °F 52% 30.27 in 10.0 mi NNE 3.5 mph - N/A   Clear
11:53 PM 45.0 °F - 30.9 °F 58% 30.27 in 10.0 mi Calm Calm - N/A   Clear